Location: Mentone
(34.5413°N, 85.5351°W)
Time: 11:25:47
(UTC-05:00)

S-56A Canister/Altair - Visible Passes

Search period start: 22 June 2017 00:00
Search period end: 02 July 2017 00:00
Orbit: 637 x 2497 km, 38.9° (Epoch: 21 June)

Date Brightness Start Highest point End Pass type
(mag) Time Alt. Az. Time Alt. Az. Time Alt. Az.
22 Jun 10.9 01:08:59 21° SE 01:09:30 21° SE 01:19:14 10° E visible
22 Jun 10.2 03:06:24 30° SSW 03:14:36 57° SE 03:28:14 10° ENE visible
23 Jun 11.1 00:37:48 17° ESE 00:37:48 17° ESE 00:44:53 10° E visible
23 Jun 10.2 02:35:12 36° SSW 02:41:19 52° SE 02:55:06 10° ENE visible
23 Jun 10.0 04:32:38 10° WSW 04:47:58 89° NNW 05:01:09 10° ENE visible
24 Jun 11.3 00:06:33 13° ESE 00:06:33 13° ESE 00:09:56 10° E visible
24 Jun 10.2 02:03:56 40° S 02:08:05 47° SE 02:21:49 10° ENE visible
24 Jun 10.0 04:01:20 16° WSW 04:14:31 87° SSE 04:28:16 10° ENE visible
25 Jun 10.2 01:32:37 40° SSE 01:34:55 42° SE 01:48:25 10° ENE visible
25 Jun 10.0 03:30:00 23° WSW 03:41:04 83° SSE 03:55:17 10° ENE visible
26 Jun 10.3 01:01:14 37° SE 01:01:48 37° SE 01:14:53 10° ENE visible
26 Jun 9.9 02:58:37 31° SW 03:07:38 79° SSE 03:22:13 10° ENE visible
26 Jun 10.2 04:59:53 10° W 05:15:14 76° N 05:28:14 10° E visible
27 Jun 10.4 00:29:46 32° SE 00:29:46 32° SE 00:41:12 10° ENE visible
27 Jun 9.9 02:27:09 38° SW 02:34:13 74° SSE 02:49:04 10° ENE visible
27 Jun 10.1 04:26:29 10° W 04:41:42 77° N 04:55:19 10° ENE visible
27 Jun 10.6 23:58:15 27° ESE 23:58:15 27° ESE 00:07:19 10° E visible
28 Jun 9.9 01:55:37 46° SSW 02:00:52 69° SSE 02:15:48 10° ENE visible
28 Jun 10.1 03:53:11 10° W 04:08:10 79° NNW 04:22:20 10° ENE visible
28 Jun 10.8 23:26:38 21° ESE 23:26:38 21° ESE 23:33:14 10° E visible
29 Jun 9.8 01:24:00 52° SSW 01:27:34 63° SE 01:42:27 10° ENE visible
29 Jun 10.0 03:21:22 15° WSW 03:34:37 81° NNW 03:49:16 10° ENE visible
29 Jun 11.0 22:54:56 16° ESE 22:54:56 16° ESE 22:58:52 10° E visible
30 Jun 9.7 00:52:17 54° S 00:54:22 58° SE 01:09:01 10° ENE visible
30 Jun 10.0 02:49:39 20° WSW 03:01:05 84° NNW 03:16:05 10° ENE visible
30 Jun 10.2 04:53:57 10° W 05:09:14 75° N 05:22:37 10° E visible
30 Jun 11.1 22:23:07 11° E 22:23:07 11° E 22:24:04 10° E visible
01 Jul 9.7 00:20:28 52° SSE 00:21:15 52° SE 00:35:28 10° ENE visible
01 Jul 9.9 02:17:49 25° WSW 02:27:35 87° NNW 02:42:50 10° ENE visible
01 Jul 10.2 04:20:36 10° W 04:35:40 75° N 04:49:38 10° E visible
